{"data":{"norad_id":68495,"epoch":"2026-05-25T04:00:03.998880Z","epoch_age_seconds":54435,"freshness":"FRESH","line1":"1 68495U 26067CH  26145.16671295  .00026890  00000+0  56557-2 0  9992","line2":"2 68495  97.7597 102.7348 0004012  85.7489 271.6640 14.59474026  5677","mean_motion":14.59474026,"eccentricity":0.0004012,"inclination_deg":97.7597,"raan_deg":102.7348,"arg_perigee_deg":85.7489,"mean_anomaly_deg":271.664,"bstar":0.0056557,"rev_number":567,"period_min":98.665681906421,"perigee_km":692.03512935793,"apogee_km":697.71051243822,"semimajor_km":7073.0098208981,"source":"CELESTRAK","updated_at":"2026-05-25T13:38:07.877339Z"}}